Regional Weather Roundup
Issued by NWS

Home | Current Version | Previous Version | Graphics & Text | Print | Product List | Glossary On
Versions: 1 2 3 4 5 6 7 8 9 10 11 12 13 14 15 16 17 18 19 20 21 22 23 24 25 26 27 28 29 30 31 32 33 34 35 36 37 38 39 40 41 42 43 44 45 46 47 48 49 50
000
ASUS43 KDTX 051510
RWRMI
MICHIGAN HOURLY REGIONAL WEATHER ROUNDUP
NATIONAL WEATHER SERVICE DETROIT/PONTIAC MI
1000 AM EST FRI FEB 05 2016

NOTE: "FAIR" INDICATES FEW OR NO CLOUDS BELOW 12,000 FEET WITH NO
SIGNIFICANT WEATHER AND/OR OBSTRUCTION TO VISIBILITY.

MIZ047>049-052>055-059>063-066>070-074>076-081>083-051600-
SOUTHEAST LOWER MICHIGAN

CITY           SKY/WX    TMP DP  RH WIND       PRES   REMARKS
ADRIAN         SUNNY     38  20  48 SW5       30.36R WCI  34
ALMA           CLOUDY    28  25  86 S5        30.31S WCI  23
ANN ARBOR      SUNNY     25  19  78 SW5       30.34S WCI  19
BAD AXE        CLOUDY    26  20  80 S8        30.31S WCI  17
CARO           MOSUNNY   28  22  77 SW6       30.30S WCI  22
DETROIT CITY   SUNNY     27  18  69 S8        30.36S WCI  19
DETROIT        MOSUNNY   26  19  74 S7        30.37S WCI  18
FLINT          SUNNY     29  20  69 SW7       30.32S WCI  22
GROSSE ILE     SUNNY     28  19  69 S5        30.35F WCI  23
HILLSDALE      MOSUNNY   24  20  83 SW3       30.32R
HOWELL         CLOUDY    27  21  80 SW5       30.31S WCI  21

CITY           SKY/WX    TMP DP  RH WIND       PRES   REMARKS
JACKSON        PTSUNNY   27  19  72 SW7       30.32R WCI  19
LAMBERTVILLE   SUNNY     28  21  76 SW3       30.37S
LANSING        MOSUNNY   27  20  75 SW9       30.32R WCI  18
LAPEER         FAIR      25  21  84 S3        30.31F
MASON          MOSUNNY   26  20  77 SW5       30.32R WCI  21
MONROE         SUNNY     28  20  74 SW5       30.36S WCI  22
MT. CLEMENS    PTSUNNY   28  20  72 S9        30.33F WCI  19
PONTIAC        MOSUNNY   25  18  74 SE5       30.31S WCI  19
PORT HOPE        N/A     26  19  74 SW8       30.28F WCI  18
PORT HURON     MOSUNNY   27  21  80 S7        30.34F WCI  19
TRI CITIES     CLOUDY    28  21  75 SW6       30.31S WCI  22
MIDLAND        CLOUDY    27  21  80 SW3       30.30F
TROY           SUNNY     27  19  73 SW3       30.36S
SAGINAW HB     CLOUDY    28  25  86 SW8       30.31S WCI  20
$$
MIZ043>046-050>051-056>058-064>065-071>073-077>080-051600-
SOUTHWEST LOWER MICHIGAN

CITY           SKY/WX    TMP DP  RH WIND       PRES   REMARKS
BATTLE CREEK   CLOUDY    25  20  81 SW7       30.32R WCI  17
BENTON HARBOR  LGT SNOW  30  23  75 S6        30.32S WCI  24
BIG RAPIDS     CLOUDY    26  25  94 CALM      30.28S
COLDWATER      CLOUDY    28  20  75 SW6       30.33R WCI  21
FREMONT        CLOUDY    27  26  94 CALM      30.30R
HOLLAND        LGT SNOW  28  24  85 S5        30.32R FOG     WCI  23
GRAND RAPIDS   PTSUNNY   28  22  78 S7        30.31R WCI  21
IONIA          CLOUDY    27  22  79 SW7       30.30S WCI  20
KALAMAZOO      CLOUDY    26  20  77 S7        30.32S WCI  18
LUDINGTON      CLOUDY    29  24  80 NW5       30.31R WCI  24
MARSHALL       SUNNY     25  20  82 CALM      30.32R
MOUNT PLEASANT CLOUDY    28  22  78 SW5       30.29S WCI  23
MUSKEGON       LGT SNOW  31  25  78 NE3       30.31R
SOUTH HAVEN    CLOUDY    28  24  84 S5        30.32S WCI  23
$$
MIZ016>042-051600-
NORTHERN LOWER MICHIGAN

CITY           SKY/WX    TMP DP  RH WIND       PRES   REMARKS
ALPENA         CLOUDY    24  18  77 SW8       30.27R WCI  15
BEAVER ISLAND  CLOUDY    27  19  72 NW7       30.27R WCI  19
BELLAIRE       LGT SNOW  28  24  86 CALM      30.28S
CADILLAC       FLURRIES  25  22  89 SW5       30.24S WCI  19
CHARLEVOIX     CLOUDY    28  21  74 W8        30.30R WCI  20
FRANKFORT      FLURRIES  29  23  77 NW5       30.29R WCI  24
GAYLORD        CLOUDY    23  20  88 SW3       30.22S
GRAYLING       CLOUDY    21  19  93 CALM      30.26S
HARBOR SPRINGS CLOUDY    27  20  75 W3        30.26R
MANISTEE       CLOUDY    27  21  80 W3        30.30R
OSCODA         SUNNY     24  19  83 SW9       30.28S WCI  14
PELLSTON       CLOUDY    24  20  84 NW5       30.26R WCI  18
ROGERS CITY    CLOUDY    24  20  84 SW5       30.27R WCI  18
TRAVERSE CITY  FLURRIES  27  21  78 SW5       30.28R WCI  22
$$
MIZ007>008-015-051600-
EASTERN UPPER MICHIGAN

CITY           SKY/WX    TMP DP  RH WIND       PRES   REMARKS
KINROSS        CLOUDY    21  19  93 W6        30.23R WCI  14
MACKINAC ISLAN CLOUDY    24  20  87 W7        30.25R WCI  16
NEWBERRY       PTSUNNY   20  15  81 W9        30.23S WCI   9
S. S. MARIE    FLURRIES  22  17  81 W3        30.21F
MUNISING         N/A     22  15  75 VRB7      30.26R WCI  13
$$
MIZ004>006-011>014-085-051600-
CENTRAL UPPER MICHIGAN

CITY           SKY/WX    TMP DP  RH WIND       PRES   REMARKS
MANISTIQUE     SUNNY     19  13  77 W8        30.27S WCI   9
ESCANABA       SUNNY     19  12  73 NW7       30.29S WCI  10
MENOMINEE      SUNNY     19  12  73 NW7       30.32R WCI  10
SAWYER-GWINN   SUNNY     12  10  92 W5        30.24R WCI   4
$$
MIZ001>003-009>011-084-051600-
WESTERN UPPER MICHIGAN

CITY           SKY/WX    TMP DP  RH WIND       PRES   REMARKS
IRON MOUNTAIN  SUNNY     12   9  87 CALM      30.26S
HOUGHTON       MOSUNNY   19  10  68 NW9       30.24R WCI   8
COPPER HARBOR    N/A     21  11  65 N15       30.26R WCI   8
IRONWOOD       SUNNY     12  12 100 SW6       30.26S WCI   3
$$

ABBREVIATIONS USED IN REMARKS
   TC - TEMPERATURE IN CELSIUS
  WCI - WIND CHILL INDEX
   HX - HEAT INDEX
  VSB - VISIBILITY




USA.gov is the U.S. government's official web portal to all federal, state and local government web resources and services.